Temp
71 71 71 70 69 70 70 72 72 71 71 73 71 73 72 72 74 77 78 82 81 82 83 83 83 82 82 82 82 82 82 82 81 81 81 81 81 81 81 80 80 80 80
71 72 70 70 70 70 70 71 72 70 70 72 71 72 74 74 74 74 74 77 81 82 82 83 83 82 82 82 82 82 82 82 82 81 81 81 80 80 80 80 80 80 80
72 71 69 69 71 72 72 72 74 71 71 71 71 71 73 74 75 74 74 75 78 81 82 82 82 82 82 83 82 82 82 81 81 81 81 80 80 80 80 79 79 79 79
72 72 70 70 72 72 72 74 72 71 72 72 70 69 70 72 73 74 74 73 73 78 81 82 81 81 82 83 83 82 82 81 80 81 80 80 80 80 79 79 79 79 79
74 72 72 72 72 69 70 76 77 72 71 71 71 71 69 69 71 74 74 74 73 74 74 79 81 81 82 83 83 82 82 81 80 80 80 80 80 79 79 79 78 78 78
74 72 71 72 71 71 71 73 73 72 71 71 70 72 69 70 70 70 72 75 73 74 73 73 75 78 80 82 83 82 82 81 80 80 80 79 79 79 78 78 78 78 78
74 72 70 70 72 72 71 72 76 70 68 69 66 66 67 69 69 70 71 72 72 74 73 73 74 76 77 79 80 81 82 82 81 80 80 79 79 78 78 77 77 77 78
74 73 71 70 73 72 73 74 74 71 69 67 64 61 61 65 66 69 70 73 71 73 74 76 74 75 74 75 78 80 81 81 82 81 80 79 78 78 78 77 76 77 77
75 74 73 70 72 72 72 72 73 72 69 67 66 62 60 60 62 67 69 70 73 71 72 74 75 75 74 74 78 80 80 79 81 81 81 79 78 78 78 77 76 76 76
76 73 73 71 71 72 70 71 74 72 71 70 67 70 65 65 63 62 66 67 70 72 72 73 75 76 76 74 76 79 79 78 79 81 81 80 79 78 78 78 77 76 76
76 75 72 69 71 71 71 71 71 72 72 70 67 66 65 65 67 63 62 64 69 69 70 72 74 72 74 76 75 76 78 78 78 79 80 80 80 79 79 79 78 77 77
74 75 74 71 72 72 70 70 72 74 73 73 70 68 68 65 67 67 65 68 67 73 72 75 76 72 74 76 80 79 78 77 77 77 77 78 79 80 80 80 80 79 78
72 74 74 73 73 73 72 72 73 74 75 74 72 71 71 69 73 70 69 73 69 70 72 74 78 79 79 76 79 80 79 76 75 74 75 76 77 78 79 80 80 81 80
76 77 76 74 74 75 75 73 72 73 75 74 73 72 72 73 73 72 71 69 67 67 68 74 74 77 74 74 79 80 80 74 74 73 73 74 74 75 76 77 78 78 79
76 74 74 74 74 75 75 73 73 73 73 74 73 72 71 72 73 71 71 70 70 65 67 72 72 75 79 80 80 78 78 75 74 73 72 72 73 73 74 75 75 75 76
74 74 73 72 74 75 75 73 73 73 72 73 74 73 72 73 73 72 72 72 71 72 67 70 73 76 77 81 78 79 80 75 73 72 71 71 71 72 73 73 73 73 73
75 74 74 74 71 74 73 73 73 74 72 72 73 73 72 73 74 72 72 72 72 70 67 71 72 74 75 77 77 78 78 77 76 72 72 71 70 70 70 70 71 71 72
75 77 74 74 73 74 74 75 75 78 73 73 75 72 72 77 72 73 71 71 71 71 69 68 69 72 74 75 76 76 79 84 74 76 70 70 69 69 69 68 68 68 68
76 77 75 75 74 75 74 73 74 74 74 73 72 72 72 72 71 72 72 71 70 72 70 69 70 71 69 72 72 74 74 73 76 72 69 70 68 67 67 65 65 64 63
75 76 76 76 75 76 76 75 74 73 73 74 75 73 73 72 72 71 71 71 71 70 70 69 69 69 69 72 71 70 69 70 70 76 75 72 70 67 65 63 64 64 61
77 77 76 75 75 76 77 76 75 73 73 73 73 74 74 74 73 72 72 71 70 69 69 69 67 68 69 69 68 69 68 69 70 70 70 71 70 66 63 63 64 63 61
76 77 76 76 74 78 74 72 76 74 73 72 72 73 74 74 74 71 71 72 73 70 69 68 69 68 67 68 68 68 68 67 66 71 69 69 69 61 60 58 62 61 60
74 74 75 76 74 76 71 69 72 76 74 75 75 73 73 79 72 74 71 69 69 70 73 71 69 68 67 68 69 69 68 67 67 70 68 65 65 60 58 59 61 61 59
72 71 72 72 72 74 68 68 69 75 76 75 75 74 74 75 73 73 73 72 71 71 70 70 70 72 70 70 70 70 70 69 68 67 66 64 62 59 57 56 62 61 59
68 69 69 67 67 67 65 63 65 70 72 75 76 76 76 75 70 68 72 70 69 70 65 64 65 66 67 67 69 68 66 65 63 62 62 61 60 59 57 56 57 61 59
67 68 68 68 65 67 64 62 64 70 70 74 76 76 69 75 67 64 72 71 69 70 68 66 65 64 64 65 65 68 66 65 61 60 62 60 58 58 57 59 57 55 54
MSLP
1018.49 1018.51 1018.81 1018.94 1019.15 1019.44 1019.37 1019.17 1019.33 1019.43 1019.65 1019.57 1020.01 1020.04 1020.19 1019.98 1019.93 1019.88 1019.93 1020.17 1020.54 1020.63 1020.75 1020.87 1020.87 1021.01 1021.10 1020.93 1020.92 1021.12 1021.16 1021.10 1021.06 1020.97 1020.90 1020.83 1020.81 1020.90 1021.00 1021.09 1021.13 1021.14 1021.14
1018.51 1018.51 1018.23 1018.78 1018.97 1018.98 1019.01 1019.25 1019.15 1019.39 1019.43 1019.14 1019.24 1019.91 1019.66 1019.59 1019.70 1019.54 1019.81 1019.99 1020.34 1020.60 1020.76 1020.85 1020.88 1020.88 1021.01 1020.90 1020.78 1020.88 1020.99 1020.96 1020.89 1020.77 1020.68 1020.71 1020.69 1020.74 1020.87 1021.00 1021.08 1021.10 1021.07
1018.42 1017.86 1017.92 1018.66 1018.84 1018.92 1018.80 1018.93 1019.13 1019.76 1019.83 1019.88 1019.72 1020.59 1020.06 1019.55 1019.18 1019.65 1019.94 1020.05 1020.36 1020.54 1020.70 1020.80 1020.85 1020.79 1020.86 1020.86 1020.71 1020.66 1020.74 1020.74 1020.66 1020.62 1020.55 1020.58 1020.63 1020.67 1020.80 1020.93 1021.00 1021.07 1021.12
1018.14 1018.13 1018.33 1018.60 1018.58 1018.90 1018.69 1018.56 1019.19 1019.36 1020.06 1020.19 1020.84 1021.12 1020.19 1019.84 1019.37 1019.89 1020.19 1020.66 1020.81 1020.53 1020.33 1020.37 1020.43 1020.60 1020.69 1020.72 1020.55 1020.43 1020.46 1020.57 1020.56 1020.46 1020.46 1020.52 1020.61 1020.63 1020.77 1020.91 1020.96 1021.06 1021.15
1017.92 1018.22 1018.35 1018.48 1018.24 1018.82 1018.84 1018.57 1018.70 1018.78 1019.56 1020.12 1020.40 1020.63 1020.94 1020.08 1019.72 1019.71 1019.90 1019.90 1020.15 1020.40 1020.46 1020.22 1020.12 1020.12 1020.15 1020.18 1020.28 1020.28 1020.35 1020.45 1020.43 1020.39 1020.41 1020.45 1020.54 1020.55 1020.65 1020.80 1020.89 1020.98 1021.11
1017.74 1018.03 1018.09 1018.28 1018.55 1018.80 1018.38 1018.36 1018.65 1019.29 1019.59 1019.87 1019.66 1020.21 1020.90 1019.95 1019.89 1019.60 1019.59 1019.42 1019.49 1019.74 1020.02 1020.08 1020.05 1019.96 1019.83 1019.79 1019.77 1019.92 1020.16 1020.30 1020.28 1020.33 1020.37 1020.42 1020.53 1020.57 1020.64 1020.77 1020.85 1020.90 1021.01
1017.18 1017.64 1017.82 1018.08 1018.10 1018.27 1018.53 1018.46 1018.51 1019.24 1020.11 1020.47 1020.57 1020.50 1020.25 1019.72 1019.76 1019.39 1018.88 1019.07 1019.32 1019.02 1019.22 1019.36 1019.55 1019.71 1019.68 1019.54 1019.57 1019.63 1019.85 1019.97 1020.05 1020.15 1020.24 1020.34 1020.45 1020.53 1020.58 1020.70 1020.79 1020.83 1020.93
1016.65 1017.07 1017.36 1017.89 1017.64 1018.09 1018.21 1018.27 1018.11 1018.62 1019.52 1019.68 1020.24 1020.78 1020.47 1020.17 1019.41 1018.88 1018.90 1019.08 1018.83 1018.80 1018.88 1018.92 1019.14 1019.20 1019.40 1019.41 1019.28 1019.31 1019.38 1019.54 1019.73 1019.95 1020.04 1020.18 1020.37 1020.48 1020.54 1020.62 1020.74 1020.74 1020.83
1016.37 1016.72 1016.98 1017.58 1017.44 1017.67 1017.89 1018.05 1018.25 1018.28 1018.98 1019.62 1019.79 1020.13 1020.88 1020.45 1020.19 1019.34 1019.27 1019.19 1019.11 1019.07 1018.87 1018.54 1018.26 1018.38 1018.75 1018.94 1019.12 1018.98 1018.98 1019.24 1019.37 1019.56 1019.71 1019.88 1020.11 1020.28 1020.35 1020.44 1020.57 1020.61 1020.65
1016.13 1016.54 1016.76 1017.14 1017.24 1017.45 1017.58 1017.68 1018.17 1018.41 1018.38 1018.74 1019.78 1019.44 1019.42 1019.68 1020.10 1020.13 1019.42 1018.83 1018.50 1018.34 1018.25 1017.95 1018.00 1018.06 1018.19 1018.24 1018.42 1018.52 1018.49 1018.78 1019.15 1019.22 1019.30 1019.53 1019.79 1019.99 1020.10 1020.17 1020.31 1020.37 1020.41
1016.00 1016.21 1016.57 1016.93 1017.06 1017.18 1017.16 1017.40 1017.99 1018.07 1017.96 1018.33 1018.95 1019.26 1019.47 1019.80 1019.77 1019.69 1019.75 1019.28 1018.68 1017.96 1017.77 1017.73 1017.65 1017.83 1017.91 1017.75 1018.06 1018.31 1018.25 1018.36 1018.53 1018.81 1018.85 1019.09 1019.35 1019.55 1019.66 1019.75 1019.90 1020.02 1020.09
1015.99 1015.98 1016.15 1016.49 1016.61 1016.82 1016.96 1017.06 1017.49 1017.66 1017.78 1017.82 1018.37 1018.91 1019.07 1019.30 1019.18 1019.27 1019.17 1018.81 1018.53 1017.58 1017.10 1017.23 1017.31 1017.36 1017.44 1017.29 1017.38 1017.53 1017.70 1018.07 1018.24 1018.39 1018.39 1018.64 1018.89 1019.07 1019.16 1019.24 1019.36 1019.50 1019.61
1015.65 1015.84 1015.82 1016.03 1016.15 1016.21 1016.49 1016.58 1016.98 1017.31 1017.56 1017.65 1017.84 1018.30 1018.38 1018.61 1018.15 1018.24 1018.41 1018.37 1018.32 1017.78 1017.10 1016.61 1016.39 1016.59 1016.89 1016.96 1016.98 1016.98 1017.20 1017.33 1017.72 1017.94 1018.02 1018.20 1018.42 1018.62 1018.70 1018.72 1018.78 1018.86 1018.97
1014.88 1015.08 1015.36 1015.34 1015.50 1015.50 1015.70 1016.01 1016.52 1016.81 1017.06 1017.17 1017.25 1017.63 1017.85 1017.87 1017.86 1017.74 1017.92 1018.23 1018.32 1018.02 1017.72 1016.89 1016.31 1016.09 1016.23 1016.47 1016.49 1016.37 1016.63 1016.88 1017.01 1017.23 1017.51 1017.76 1017.90 1018.02 1018.12 1018.21 1018.29 1018.32 1018.36
1014.42 1014.59 1014.76 1015.08 1015.19 1015.28 1015.40 1015.79 1016.07 1016.24 1016.57 1016.76 1016.84 1017.00 1017.33 1017.38 1017.38 1017.50 1017.57 1017.69 1017.80 1018.30 1017.88 1016.93 1016.34 1015.54 1015.39 1015.65 1015.96 1016.15 1016.24 1016.44 1016.56 1016.73 1016.90 1017.04 1017.11 1017.29 1017.45 1017.58 1017.66 1017.75 1017.84
1013.80 1014.08 1014.37 1014.71 1014.85 1014.94 1015.15 1015.53 1015.78 1015.97 1016.15 1016.31 1016.56 1016.64 1016.64 1016.66 1016.80 1017.08 1017.15 1017.17 1017.28 1017.62 1017.68 1017.10 1016.28 1015.76 1015.37 1015.70 1015.77 1016.30 1016.11 1016.07 1016.16 1016.26 1016.34 1016.50 1016.63 1016.71 1016.82 1016.80 1016.87 1016.93 1017.00
1013.16 1013.47 1013.76 1014.10 1014.50 1014.74 1014.80 1015.18 1015.42 1015.68 1015.98 1015.97 1016.08 1016.30 1016.36 1016.36 1016.45 1016.60 1016.82 1016.88 1017.00 1017.26 1017.40 1017.09 1016.48 1016.11 1015.92 1015.72 1015.60 1015.65 1015.67 1015.81 1015.77 1015.71 1015.74 1015.77 1016.04 1016.28 1016.41 1016.47 1016.44 1016.35 1016.42
1012.56 1012.74 1013.06 1013.44 1013.72 1013.99 1014.37 1014.66 1015.01 1015.14 1015.49 1015.78 1015.78 1015.99 1016.08 1016.17 1016.28 1016.16 1016.37 1016.53 1016.75 1016.85 1017.02 1016.94 1016.68 1016.44 1016.18 1015.85 1015.61 1015.72 1015.47 1015.26 1015.36 1015.18 1015.37 1015.30 1015.42 1015.48 1015.68 1015.72 1015.75 1015.93 1015.86
1011.87 1012.08 1012.41 1012.70 1013.04 1013.29 1013.63 1014.03 1014.28 1014.59 1014.76 1015.03 1015.33 1015.51 1015.51 1015.62 1015.84 1015.82 1015.94 1016.15 1016.24 1016.35 1016.47 1016.48 1016.52 1016.20 1016.23 1015.88 1015.77 1015.70 1015.55 1015.36 1015.16 1015.06 1015.07 1014.91 1014.99 1015.04 1015.20 1015.30 1015.26 1015.28 1015.37
1011.13 1011.23 1011.39 1011.70 1012.08 1012.40 1012.77 1013.10 1013.49 1013.78 1014.09 1014.28 1014.49 1014.72 1014.84 1014.95 1015.11 1015.25 1015.47 1015.59 1015.75 1016.01 1016.21 1016.28 1016.34 1016.17 1016.03 1015.76 1015.75 1015.76 1015.65 1015.39 1015.22 1014.66 1014.39 1014.53 1014.68 1015.00 1015.09 1015.07 1015.00 1014.94 1014.91
1009.82 1009.86 1010.41 1010.73 1011.07 1011.45 1011.78 1012.17 1012.55 1012.86 1013.24 1013.59 1013.81 1013.94 1014.10 1014.15 1014.31 1014.55 1014.92 1015.03 1015.25 1015.45 1015.69 1015.98 1016.27 1015.95 1015.78 1015.86 1015.84 1015.47 1015.45 1015.20 1014.82 1014.60 1014.45 1014.51 1014.68 1015.00 1015.31 1015.37 1015.38 1015.22 1015.13
1008.66 1008.92 1009.25 1009.65 1010.16 1010.39 1010.64 1011.15 1011.69 1012.19 1012.57 1012.91 1013.07 1013.24 1013.41 1013.46 1013.67 1013.87 1014.05 1014.21 1014.28 1014.61 1014.96 1015.40 1015.31 1015.43 1015.22 1015.18 1015.21 1015.20 1015.18 1015.26 1015.17 1014.40 1014.64 1014.64 1014.62 1015.37 1015.56 1015.64 1015.62 1015.66 1015.52
1007.59 1007.81 1008.48 1008.90 1009.21 1009.42 1009.86 1010.59 1011.19 1011.62 1011.96 1012.13 1012.29 1012.57 1012.87 1012.87 1013.06 1013.27 1013.36 1013.53 1013.71 1013.79 1013.80 1014.17 1014.55 1014.45 1014.46 1014.49 1014.70 1014.77 1014.79 1014.86 1014.81 1014.46 1014.54 1014.80 1015.03 1015.58 1015.76 1015.84 1015.84 1015.73 1015.76
1007.71 1008.12 1007.69 1007.94 1008.75 1008.95 1009.29 1009.71 1010.35 1010.87 1011.25 1011.47 1011.57 1011.84 1012.11 1012.18 1012.26 1012.59 1012.95 1013.10 1013.10 1013.13 1013.19 1013.45 1013.57 1013.49 1013.52 1013.76 1013.97 1014.01 1014.15 1014.40 1014.54 1014.62 1014.58 1014.98 1015.13 1015.56 1015.85 1015.80 1015.70 1015.81 1015.95
1007.46 1007.27 1007.58 1007.22 1008.74 1009.89 1010.19 1010.43 1011.06 1010.79 1010.50 1010.49 1010.83 1011.09 1011.33 1011.60 1011.65 1011.82 1012.35 1012.56 1012.63 1012.54 1012.60 1012.78 1013.02 1013.04 1013.08 1013.16 1013.27 1013.78 1014.04 1014.48 1014.64 1014.84 1014.71 1014.82 1015.22 1015.55 1015.77 1015.67 1015.56 1015.60 1015.78
1008.11 1007.54 1007.21 1005.51 1007.90 1009.82 1009.44 1009.46 1009.56 1010.51 1010.54 1010.06 1009.94 1010.14 1010.38 1010.67 1010.94 1011.26 1011.61 1011.95 1012.20 1012.13 1012.42 1012.74 1012.90 1012.96 1012.89 1013.01 1013.13 1013.27 1013.64 1014.15 1014.59 1014.82 1014.58 1014.90 1015.21 1015.54 1015.74 1015.38 1015.31 1015.40 1015.61
Wind_Speed
4 3 1 2 2 2 3 3 4 4 5 5 4 4 4 5 5 3 3 15 14 17 16 17 16 14 14 13 12 11 11 11 10 9 9 9 7 6 6 5 5 5 5
5 3 3 2 2 4 2 3 4 4 5 2 5 2 3 3 3 4 3 5 14 14 15 16 16 15 13 13 11 11 11 11 11 12 9 7 7 7 6 5 5 5 4
7 5 4 2 3 3 6 5 5 3 3 3 5 5 0 6 2 1 2 3 7 15 16 16 14 12 13 13 12 12 11 11 11 9 7 7 7 8 7 5 5 5 3
8 6 6 6 5 3 4 5 3 4 2 5 5 4 4 4 7 5 1 1 4 4 11 15 13 13 14 14 13 13 12 12 11 10 8 8 9 8 7 6 5 5 4
10 8 6 6 4 3 4 3 1 4 3 3 5 1 3 5 4 5 3 5 4 4 4 9 14 14 15 15 15 13 12 11 9 9 8 8 10 10 9 7 7 7 6
10 7 4 5 5 3 3 3 3 3 3 4 8 7 3 2 2 3 5 4 6 6 5 5 4 6 14 15 13 13 12 12 10 9 9 9 9 9 9 8 7 8 8
8 7 5 4 2 4 2 4 2 6 3 4 4 3 2 3 2 4 2 1 3 5 6 6 5 4 4 15 14 12 14 13 12 11 10 10 10 9 10 8 8 8 9
7 6 6 5 3 2 2 2 1 3 3 1 3 2 3 4 4 4 4 3 7 4 2 4 6 5 5 4 9 14 14 13 14 13 12 11 10 10 10 10 9 9 10
7 6 6 5 3 3 3 1 2 4 4 4 3 5 2 4 1 3 4 4 6 4 3 4 7 8 8 7 9 11 15 12 14 15 14 13 12 11 10 10 10 10 10
8 7 6 6 6 4 6 3 1 1 3 3 2 1 1 4 3 1 3 4 4 6 4 5 4 8 10 7 12 14 12 13 14 15 15 15 14 14 14 13 12 12 12
8 9 8 7 6 4 3 4 3 4 3 3 3 2 1 0 1 3 2 5 3 5 5 6 5 6 6 7 6 8 15 15 16 16 15 16 16 17 16 15 15 15 15
5 7 8 8 7 5 5 5 6 4 5 3 4 4 4 3 4 3 2 4 4 5 4 6 6 5 6 5 10 14 17 14 16 17 15 16 17 18 18 17 17 17 17
4 7 7 8 5 6 6 6 5 5 4 3 5 4 4 4 2 3 3 2 3 3 3 4 5 6 5 5 6 13 17 18 15 14 14 15 15 16 17 17 17 18 18
6 7 8 7 8 8 6 6 4 4 4 4 5 4 3 4 3 2 3 3 2 2 2 5 3 5 4 4 9 14 7 15 15 15 15 15 15 16 17 17 17 17 17
6 8 8 9 8 8 8 7 5 6 5 4 5 5 4 4 3 3 3 3 4 2 3 3 2 2 4 4 4 5 7 11 16 15 16 17 17 17 17 16 16 16 16
7 7 8 8 8 9 9 8 6 5 6 5 4 5 4 3 4 2 3 2 2 2 3 4 2 1 3 4 7 5 7 8 13 14 15 16 16 17 17 18 18 18 18
8 9 9 8 9 9 9 8 7 7 7 6 5 5 6 5 4 3 2 1 1 2 2 3 2 1 2 2 3 6 5 5 5 15 16 16 14 13 15 16 16 17 16
10 11 10 9 9 10 10 11 10 10 9 8 10 6 7 5 6 5 3 4 3 3 4 4 3 2 4 2 4 4 5 6 5 7 13 13 14 15 14 14 14 13 15
12 12 10 11 11 11 10 10 11 10 10 9 8 7 8 7 6 4 4 4 3 3 3 3 3 2 4 3 2 2 2 2 1 4 10 8 8 8 6 9 10 11 12
12 12 12 12 12 12 13 13 12 10 10 9 10 9 9 8 8 7 6 6 5 4 3 3 3 3 4 3 1 3 3 2 3 4 2 3 2 11 10 9 7 5 8
14 14 13 12 12 12 10 12 11 10 10 9 9 10 9 9 10 9 5 6 6 4 4 4 3 3 3 2 3 3 3 2 3 3 1 0 2 2 4 6 5 8 8
16 13 14 14 13 10 14 16 14 10 11 11 11 9 8 11 12 14 15 11 9 7 6 4 4 4 5 4 3 4 3 1 3 1 2 2 3 1 2 2 4 4 6
12 15 14 13 13 13 16 16 17 10 10 12 12 10 9 9 10 9 12 13 12 13 12 7 6 7 4 6 4 3 4 3 4 2 1 2 2 2 1 2 3 5 6
5 8 10 8 7 7 12 17 16 13 11 11 12 11 11 12 9 10 9 8 9 9 9 7 7 7 6 4 6 5 4 3 0 0 1 2 0 1 2 1 1 3 3
0 3 1 8 6 5 7 5 7 8 11 13 11 12 12 12 13 14 8 9 8 6 3 5 7 8 8 9 6 4 3 3 2 2 1 2 0 2 2 2 4 7 5
5 4 6 10 6 20 17 16 11 8 12 10 11 13 16 16 14 16 12 9 8 7 6 3 3 1 3 2 4 4 3 3 3 1 3 3 2 2 2 2 2 3 2
Wind_Direction
140 92 341 277 262 295 252 262 233 229 248 228 200 187 191 229 225 244 211 194 201 210 211 210 205 209 214 210 214 221 229 228 234 238 239 237 229 227 218 212 218 236 252
94 88 291 342 257 238 237 250 228 211 234 246 292 208 291 311 266 187 183 194 203 211 213 210 210 212 221 222 220 225 233 239 242 240 225 219 216 215 209 210 226 240 232
130 130 249 324 286 297 284 264 230 168 236 263 259 27 149 343 317 149 204 173 207 211 213 216 214 214 221 227 228 231 239 246 250 258 226 228 205 203 197 205 225 212 215
158 184 187 231 240 265 282 253 161 118 81 26 46 30 80 42 68 63 58 4 316 243 217 214 215 218 224 232 233 234 240 248 250 232 222 224 215 203 198 202 202 200 209
173 183 196 219 217 245 261 261 136 114 46 180 113 183 290 112 97 114 100 179 208 244 258 237 220 220 225 233 239 241 245 251 239 225 225 218 207 200 197 201 208 201 202
174 162 205 193 197 206 335 317 197 99 137 149 153 249 175 74 160 169 175 188 188 198 227 235 249 242 236 238 245 240 243 249 225 227 225 217 208 199 200 205 213 206 200
173 175 187 174 162 99 288 285 132 125 111 154 124 292 89 10 286 256 200 84 265 197 207 216 216 237 247 239 244 236 239 243 231 227 221 216 216 210 205 208 217 217 208
183 183 167 167 177 121 353 293 257 121 95 310 115 78 7 327 312 299 23 295 238 232 167 230 219 222 234 244 234 237 227 233 231 230 225 218 219 222 215 212 218 219 215
184 181 183 149 180 133 195 185 264 139 132 210 189 137 119 243 358 314 327 279 262 216 174 260 216 209 222 226 239 235 230 224 223 226 227 220 219 222 225 217 220 223 223
174 174 188 160 176 194 188 170 247 164 146 186 153 90 49 133 184 317 299 282 283 259 250 256 227 230 230 222 221 226 222 214 226 225 227 224 224 224 227 227 225 226 228
181 180 176 173 192 207 169 186 226 203 174 152 145 205 136 292 281 127 234 290 249 233 219 235 224 220 226 213 212 227 229 221 214 220 219 225 225 228 231 232 233 233 234
188 195 181 179 199 189 188 216 216 223 182 165 156 167 176 185 197 192 209 234 236 283 220 218 220 221 235 218 207 212 219 222 221 219 215 221 225 227 230 232 233 235 236
184 199 187 186 196 193 194 202 217 220 199 190 178 190 187 210 201 177 138 276 252 277 298 237 226 212 211 218 234 204 212 214 221 219 217 219 222 227 230 232 233 236 238
206 192 193 188 195 198 196 194 206 219 224 232 222 198 199 222 205 186 162 155 329 303 317 256 243 198 195 207 225 222 220 214 215 217 218 222 224 225 227 230 233 236 237
198 198 189 192 205 194 193 189 209 214 211 224 239 232 214 213 202 170 168 188 163 238 273 280 265 287 179 199 227 201 200 214 219 217 219 223 225 228 229 229 229 232 235
204 189 200 195 204 205 192 189 202 215 209 221 226 245 252 256 259 200 178 178 135 205 244 228 267 298 131 167 153 261 239 224 220 221 223 229 232 233 233 232 231 231 233
205 198 200 203 198 215 207 194 202 209 208 222 229 219 242 246 251 232 201 200 178 154 220 306 281 322 244 221 244 217 219 235 236 229 228 230 234 238 241 245 242 239 240
210 208 200 197 204 205 203 202 206 213 209 219 232 222 227 219 237 243 204 207 199 182 182 231 238 265 244 259 249 247 240 237 222 231 236 234 235 238 245 243 244 247 244
208 210 200 204 204 208 204 204 204 207 209 209 210 217 223 209 228 221 225 216 212 182 212 173 239 218 232 227 225 240 255 283 314 242 236 245 250 244 260 261 250 248 255
204 202 204 203 204 206 207 205 205 206 213 213 220 219 223 214 216 214 218 221 221 224 205 211 235 242 236 247 214 212 274 233 240 247 244 232 359 92 64 60 36 338 265
211 205 202 200 195 195 200 203 202 203 205 213 222 231 230 225 214 210 199 221 210 217 213 217 233 229 215 229 214 224 226 252 283 240 294 264 101 57 39 46 65 67 73
207 206 203 198 193 203 200 195 199 205 205 211 222 229 229 220 227 225 222 219 202 206 217 198 222 215 222 208 200 215 214 205 281 232 173 248 128 87 50 56 77 76 78
208 203 206 199 200 201 193 199 200 208 209 219 223 219 227 233 225 231 233 228 236 230 221 210 217 218 216 207 197 225 217 213 220 234 113 272 97 116 106 123 128 76 62
219 223 220 204 213 211 199 197 202 210 216 221 221 218 222 231 220 214 226 232 233 223 221 220 221 234 218 201 201 198 211 211 340 290 128 218 129 120 171 234 192 160 132
229 329 226 115 70 356 350 310 275 242 227 226 223 222 223 228 223 207 207 218 229 231 133 225 245 247 230 222 195 146 191 150 292 272 331 141 134 126 203 231 213 212 205
241 204 189 116 299 273 237 227 210 242 243 231 229 227 220 225 213 211 212 220 227 227 194 193 207 199 182 195 202 202 160 179 166 265 228 147 154 145 292 250 196 198 208